Location: Berville
(49.1893°N, 2.0748°E)
Time: 00:25:02
(UTC+00:00)

Daily predictions for brighter satellites

Satellite Brightness Start Highest point End
(mag) Time Altitude Azimuth Time Altitude Azimuth Time Altitude Azimuth
ACS3 Solar Sail 4.1 02:01:17 10° NE 02:03:45 18° ENE 02:03:45 18° ENE
ADEOS Rocket 4.3 02:33:43 10° NNE 02:38:45 40° ENE 02:38:45 40° ENE
Cosmos 2219 Rocket 3.9 02:55:06 29° ENE 02:55:06 29° ENE 02:58:34 10° NE
USA 267 3.4 03:14:16 10° ENE 03:20:18 65° ESE 03:20:18 65° ESE
USA 238 DEB 4.3 03:33:04 44° N 03:33:04 44° N 03:38:26 10° NE
H-2A R/B 4.1 03:26:46 10° NNE 03:28:05 18° NNE 03:28:05 18° NNE
USA 238 4.3 03:33:10 44° N 03:33:10 44° N 03:38:33 10° NE
Cosmos 2278 Rocket 3.9 03:29:48 21° N 03:32:22 29° NE 03:37:16 10° ESE
Cosmos 2333 Rocket 3.4 03:39:30 34° N 03:39:30 34° N 03:42:49 10° NNE
COSMOS 2455 3.3 03:45:06 51° N 03:45:06 51° N 03:49:46 10° NNE
ADEOS II 4.3 03:39:02 10° N 03:39:55 15° N 03:39:55 15° N
Lacrosse 5 rocket 4.0 03:46:58 12° NE 03:46:58 12° NE 03:47:19 10° NE
ACS3 Solar Sail 2.1 03:43:18 10° N 03:47:53 54° N 03:47:53 54° N
BlueWalker 3 4.3 03:53:51 20° ESE 03:53:51 20° ESE 03:55:02 10° ESE
CENTAUR R/B 4.3 03:52:18 23° NNW 03:55:30 30° NNE 04:02:53 10° ENE
Cosmos 2360 Rocket 2.9 03:59:09 41° N 03:59:09 41° N 04:03:10 10° NNE
Cosmos 2322 Rocket 3.1 03:59:31 37° N 03:59:31 37° N 04:03:21 10° NNE
USA 234 3.1 03:51:54 10° SE 03:58:26 70° SW 03:58:53 68° WSW
Gbstr 26 Del rocket 4.3 03:59:16 39° SSE 03:59:44 40° SE 04:05:00 10° ENE
SL-16 R/B 3.6 04:06:02 25° NNW 04:06:02 25° NNW 04:09:05 10° NNE
Cosmos 44 Rocket 3.5 04:05:02 69° NNE 04:05:19 71° NE 04:10:28 10° SE
Cosmos 1943 Rocket 2.9 04:06:17 22° N 04:09:38 49° NE 04:14:57 10° SE
Meteor 2-14 Rocket 4.5 04:05:45 10° S 04:11:49 77° E 04:17:55 10° NNE
Okean 1-7 3.8 04:13:10 42° NNE 04:13:10 42° NNE 04:16:05 10° NNE
H-2A R/B 4.5 04:08:44 10° NNE 04:11:15 37° NE 04:11:15 37° NE
ARGOS 3.0 04:09:41 10° NNE 04:15:08 81° WNW 04:16:17 57° SSW
PAYLOAD A 4.2 04:10:31 10° NNE 04:15:58 79° ESE 04:20:30 15° S
Cosmos 1140 Rocket 3.5 04:15:55 38° NNW 04:17:53 76° ENE 04:22:59 10° SSE
NOSS 2-1 (D) 4.4 04:19:05 35° E 04:19:05 35° E 04:21:13 10° NE
Timation 2 Rocket 4.2 04:14:49 20° NNW 04:19:38 76° ENE 04:26:04 10° SE
CZ-2C R/B 2.3 04:15:28 10° NNE 04:20:29 82° WNW 04:21:33 57° SSW
Cosmos 1809 Rocket 4.3 04:17:38 10° S 04:23:45 85° W 04:29:53 10° N
ADEOS Rocket 3.5 04:19:22 10° N 04:25:25 44° WNW 04:25:40 44° WNW
NOSS 3-1 (C) 3.1 04:27:25 41° SSW 04:29:07 72° SE 04:34:48 10° NE
Iridium 4 Rocket 4.2 04:27:17 10° N 04:31:29 43° E 04:35:28 10° SSE
SJ 16-02 3.9 04:28:45 10° N 04:31:39 17° NE 04:34:33 10° E
Cosmos 2100 Rocket 3.8 04:25:44 10° N 04:31:53 81° W 04:38:03 10° S
Cosmos 2219 Rocket 2.4 04:36:50 45° WNW 04:37:17 46° NW 04:42:47 10° NNE
SL-24 R/B - RUBIN 2 4.0 04:39:22 50° W 04:40:13 57° NW 04:45:02 10° NE
IRS-1D 4.2 04:35:37 10° NNE 04:40:30 53° E 04:45:19 10° S
TIMED 4.4 04:40:17 38° NNW 04:41:54 87° ENE 04:46:09 10° SSE
COSMOS 2428 2.7 04:41:30 11° SSW 04:47:04 88° ESE 04:52:48 10° NNE
USA 59 Rocket -0.8 04:50:48 70° N 04:50:48 70° N 04:53:31 10° NE
SL-08 RB Rocket 3.8 04:47:38 10° N 04:52:04 51° WNW 04:53:29 36° WSW
Cosmos 1459 Rocket 4.0 04:46:48 10° NNW 04:53:06 64° W 04:59:21 10° S
Cosmos 1864 Rocket 4.4 04:47:43 10° N 04:54:01 81° W 05:00:20 10° S
Cosmos 2322 3.6 04:50:01 17° SW 04:54:33 73° WNW 05:00:15 10° NNE
FengYun 1-2 T 4.2 04:51:30 10° NNE 04:57:05 88° WNW 05:02:41 10° SSW
COSMO-SKYMED 1 2.8 04:54:52 10° SSE 04:58:56 63° ENE 05:03:02 10° N
Meteor 2-21 4.4 04:53:24 10° SSW 04:59:26 64° WNW 05:05:29 10° N
Cosmos 407 Rocket 3.4 04:54:47 10° NNW 04:59:51 89° ENE 05:04:57 10° SSE
SKYMED 2 3.5 04:55:53 10° SSE 05:00:14 89° E 05:04:37 10° NNW
Cosmos 1727 Rocket 4.2 04:56:10 10° SW 05:02:04 46° WNW 05:08:03 10° N
Cosmos 2228 Rocket 3.6 05:03:28 34° WNW 05:03:28 34° WNW 05:07:16 10° N
Cosmos 1725 Rocket 3.9 04:57:13 10° NNW 05:03:33 77° W 05:09:52 10° S
USA 267 3.4 04:57:24 10° ENE 05:03:47 59° NNW 05:07:39 25° W
Cosmos 1980 4.2 05:01:20 10° SSW 05:06:52 61° ESE 05:12:28 10° NE
H-2A R/B 3.9 05:07:37 10° NNW 05:08:34 13° NNW 05:08:34 13° NNW
Cosmos 1802 Rocket 4.0 05:05:09 10° NNW 05:11:26 62° W 05:17:36 10° S
NOSS 3-1 (A) 3.3 05:08:37 10° SSW 05:13:16 66° SE 05:18:55 10° NE
Cosmos 2233 Rocket 4.0 05:08:26 10° N 05:14:48 89° WSW 05:21:05 10° S
Cosmos 1328 3.8 05:12:46 10° SSW 05:16:16 44° WNW 05:19:48 10° N
Cosmos 2278 Rocket 2.2 05:11:40 12° NW 05:16:49 61° WSW 05:22:22 10° S
Cosmos 1703 Rocket 3.5 05:13:22 10° SSW 05:17:39 58° WNW 05:22:00 10° N
Cosmos 2251 Rocket 3.7 05:13:19 10° NNW 05:18:41 75° ENE 05:24:02 10° SSE
NOSS 2-1 (E) 2.9 05:18:52 28° WSW 05:20:21 54° NW 05:23:22 10° NE
CZ-3 R/B 4.3 05:16:05 10° SSW 05:20:27 13° S 05:23:32 10° SSE
Cosmos 1939 Rocket 3.4 05:17:51 10° N 05:21:19 33° WNW 05:23:42 17° WSW
Lacrosse 5 rocket 2.4 05:20:39 20° NNW 05:21:37 22° N 05:24:21 10° NE
Meteor 2-16 Rocket 4.4 05:15:57 10° SSW 05:22:01 69° WNW 05:28:10 10° N
Cosmos 2173 Rocket 4.4 05:16:46 10° NNW 05:22:16 37° W 05:27:45 10° SSW
Cosmos 2333 Rocket 3.8 05:21:33 15° NW 05:22:43 16° NNW 05:26:17 10° N
Cosmos 2237 Rocket 2.4 05:17:29 10° SSW 05:23:08 75° ESE 05:28:47 10° NNE
USA-17 4.1 05:22:08 26° NW 05:23:47 88° SW 05:27:07 10° SE
SL-08 R/B 4.4 05:19:37 10° NNW 05:25:39 65° W 05:31:44 10° S
Cosmos 2292 Rocket 3.7 05:23:52 10° SSW 05:28:05 68° WNW 05:33:36 10° N
BlueWalker 3 3.1 05:27:40 21° WSW 05:28:41 24° SW 05:31:37 10° SSE
USA 276 3.9 05:29:39 14° SW 05:29:49 14° SW 05:31:21 10° S
COSMOS 2455 4.2 05:28:15 17° WNW 05:30:48 22° NNW 05:35:25 10° NNE
ACS3 Solar Sail 3.1 05:27:50 10° NNW 05:31:21 16° NW 05:32:02 16° WNW
Meteor 1-24 Rocket 3.9 05:27:15 10° SSW 05:32:49 50° WNW 05:38:15 10° N
Helios 1A Rocket 3.0 05:30:17 10° SSW 05:33:26 35° W 05:36:22 11° NNW
Cosmos 2369 Rocket 3.6 05:29:16 10° NNW 05:34:29 35° NE 05:39:40 10° ESE
CZ-4 R/B 3.9 05:31:04 10° N 05:35:53 56° WNW 05:40:36 10° SSW
Cosmos 1782 Rocket 3.7 05:33:40 10° NNW 05:37:57 50° W 05:42:10 10° S
USA 234 4.5 05:37:18 10° S 05:42:14 22° SW 05:46:14 13° W
Cosmos 2360 Rocket 3.9 05:40:55 13° NW 05:42:55 15° NNW 05:46:11 10° N
Cosmos 2322 Rocket 3.9 05:41:21 12° NW 05:43:19 14° NNW 05:46:21 10° N
Cosmos 2123 Rocket 4.3 05:37:44 10° SW 05:43:35 42° WNW 05:49:26 10° N
Meteor 2-5 Rocket 4.1 05:38:22 10° SW 05:44:01 46° WNW 05:49:40 10° N
NOAA 12 4.2 05:39:57 10° N 05:45:09 56° WNW 05:50:21 10° SW
Cosmos 1420 Rocket 4.1 05:40:01 10° SSW 05:45:17 84° ESE 05:50:37 10° NNE
Gbstr 26 Del rocket 3.6 05:41:19 13° WSW 05:45:58 82° NNW 05:52:19 10° ENE
CENTAUR R/B 3.8 05:40:10 10° NW 05:47:55 55° NE 05:56:57 10° ESE
SL-16 R/B 4.2 05:49:21 10° NNW 05:50:12 10° NNW 05:51:04 10° NNW
ARIANE 5 R/B 4.5 05:46:03 10° NNE 05:50:37 33° E 05:55:12 10° SSE
Cosmos 1943 Rocket 2.9 05:48:20 10° NW 05:53:08 31° WSW 05:57:53 10° SSW
Cosmos 1812 2.2 05:54:02 10° N 05:56:59 74° ENE 05:59:53 10° SSE
CZ-2C R/B 4.0 05:55:05 10° NNW 05:57:48 15° NW 06:00:33 10° W
Cosmos 1300 Rocket 4.4 05:54:34 10° NNW 05:58:19 29° W 06:02:01 10° SSW
SMAP 4.2 05:54:58 10° NNE 05:59:30 49° E 06:04:01 10° S
Cosmos 2346 Rocket 4.4 05:56:03 10° SSW 06:02:11 70° W 06:08:18 10° N
NOSS 2-1 (C) 4.1 06:00:51 11° W 06:03:10 21° NW 06:05:34 10° NNE
NOSS 2-1 (D) 4.3 06:04:54 10° W 06:07:12 19° NW 06:09:26 10° NNE
SJ 16-02 1.3 06:05:58 10° NNW 06:10:15 67° WSW 06:14:30 10° S
Iridium 4 Rocket 4.3 06:07:47 10° NNW 06:10:52 19° WNW 06:13:52 10° SW
Aureole 3 Rocket 3.4 06:07:07 10° NNW 06:11:18 62° W 06:17:01 10° S
Okean 1 Rocket 4.2 06:07:23 10° N 06:11:36 46° ENE 06:15:46 10° SSE
Cosmos 2061 Rocket 4.5 06:08:19 10° NNW 06:13:58 38° W 06:19:36 10° SSW
CBERS-1 4.0 06:10:12 10° NNE 06:15:20 75° WNW 06:20:25 10° SSW
SWARM A 4.2 06:13:55 10° SSW 06:17:11 61° W 06:20:30 10° N
IRS-1D 4.5 06:15:20 10° N 06:19:19 25° WNW 06:23:16 10° WSW
Cosmos 1190 Rocket 4.4 06:14:42 10° NW 06:19:41 43° WSW 06:24:37 10° S
Cosmos 1378 Rocket 3.5 06:15:32 10° S 06:19:48 87° W 06:24:07 10° N
NOSS 3-1 (C) 4.1 06:15:50 10° W 06:20:24 32° NNW 06:25:56 10° NE
Cosmos 676 Rocket 4.0 06:15:33 10° NNW 06:20:47 67° WSW 06:25:56 10° S
SL-16 R/B 2.8 06:15:47 10° SSW 06:21:23 64° ESE 06:27:02 10° NNE
In-Cosmos 22 Rocket 4.3 06:16:28 10° SSW 06:22:16 73° WNW 06:28:07 10° N
